Location: Haliburton Scout Reserve
(45.0900°N, 78.3200°W)
Time: 07:58:02
(UTC-04:00)

S-56A Canister/Altair - Pass Details

Date: 03 February 2023
Orbit: 639 x 2493 km, 38.9° (Epoch: 27 March)

Event Time Altitude Azimuth Distance (km) Brightness Sun altitude
Rises 14:41:30 0° 268° (W) 3,266 11.3 21.3°
Reaches altitude 10° 14:43:44 10° 261° (W) 2,485 10.9 21.1°
Maximum altitude 14:49:14 43° 191° (S) 1,471 10.2 20.5°
Drops below altitude 10° 14:57:13 10° 124° (ESE) 3,587 11.0 19.7°
Sets 15:01:05 0° 118° (ESE) 4,887 11.5 19.3°
